User: anonymous   Login
Location: Caltech
(34.1382°N, 118.1253°W)
Time: 10:45:45
(UTC-07:00)
Language:

ERBS - Orbit

View from above orbital plane
View from above orbital plane
View from above satellite
View from above satellite

Ground track
Ground track

The orbit data is extracted from the following two-line orbital elements,

1 15354U 84108B   15242.84312630  .00003258  00000-0  99135-4 0  9999
2 15354 057.0103 072.2506 0009013 320.3232 039.7160 15.36909040697034
Epoch (UTC): 30 August 2015 20:14:06
Eccentricity: 0.0009013
inclination: 57.0103°
perigee height: 449 km
apogee height: 461 km
right ascension of ascending node: 72.2506°
argument of perigee: 320.3232°
revolutions per day: 15.36909040
mean anomaly at epoch: 39.7160°
orbit number at epoch: 69703

The dashed part of the orbit path shows where the satellite is in the earth's shadow,  

DLR